Voltar ao catálogo

STARLINK-4781

AtivoComunicaçõesVLEO
NORAD 53861·PAYLOAD·🇺🇸 United States

Lançado Sep 19, 2022 de Cape Canaveral Space Force Station

Loading…

Próximas Passagens (próximas 24 horas)

TLE

AtualizadoSource: CelesTrak SupGP

Época: Sep 15, 2026, 02:50 UTC

1 53861C 22114AV  26258.11854167  .00052346  00000+0  16833-2 0  2589
2 53861  53.1564 142.8261 0001224  85.3205   5.5324 15.31675762    18

Acompanhe STARLINK-4781 em tempo real com AllMySat

Download on the App Store